Tracking 19817 objects as of 17-Aug-2019
HD Live streaming from Space Station
objects crossing your sky now

FENGYUN 1C DEB

Track FENGYUN 1C DEB now!
10-day predictions


NORAD ID: 37428
Int'l Code: 1999-025EGW
Perigee: 796.5 km
Apogee: 910.7 km
Inclination: 97.8 °
Period: 101.9 minutes
Semi major axis: 7224 km
RCS: 0.0129 m2 (small)
Launch date: May 10, 1999
Source: People's Republic of China (PRC)
Launch site: Taiyaun Space Center, China (TSC)

Note: This is SATELLITE DEBRIS
aabbcc
Your satellite tracking list
Your tracking list is empty




NASA's NSSDC Master Catalog

Two Line Element Set (TLE):
1 37428U 99025EGW 19228.13244363  .00000359  00000-0  20170-3 0  9997
2 37428  97.7637 345.1174 0078983  95.1232 265.8964 14.13777816618715
Source of the keplerian elements: AFSPC